Time,TemperatureF,DewpointF,PressureIn,WindDirection,WindDirectionDegrees,WindSpeedMPH,WindSpeedGustMPH,Humidity,HourlyPrecipIn,Conditions,Clouds,dailyrainin,SoftwareType,DateUTC
2013-06-10 00:03:00,65.0,57.0,30.14,SSE,159,0.0,0.0,76,0.00,,,0.49,,2013-06-10 04:03:00,
2013-06-10 00:12:00,65.0,57.0,30.14,SSE,159,0.0,0.0,76,0.00,,,0.49,,2013-06-10 04:12:00,
2013-06-10 00:23:00,64.0,57.0,30.14,SSE,159,0.0,0.0,77,0.00,,,0.00,,2013-06-10 04:23:00,
2013-06-10 00:33:00,64.0,57.0,30.14,SSE,159,0.0,0.0,78,0.00,,,0.00,,2013-06-10 04:33:00,
2013-06-10 00:42:00,64.0,57.0,30.14,SSE,159,0.0,0.0,78,0.00,,,0.00,,2013-06-10 04:42:00,
2013-06-10 00:52:00,63.0,56.0,30.14,SSE,159,0.0,0.0,79,0.00,,,0.00,,2013-06-10 04:52:00,
2013-06-10 01:02:00,63.0,57.0,30.14,SSE,159,0.0,0.0,80,0.00,,,0.00,,2013-06-10 05:02:00,
2013-06-10 01:12:00,63.0,57.0,30.14,SSE,159,0.0,0.0,80,0.00,,,0.00,,2013-06-10 05:12:00,
2013-06-10 01:22:00,63.0,57.0,30.14,SSE,159,0.0,0.0,80,0.00,,,0.00,,2013-06-10 05:22:00,
2013-06-10 01:32:00,62.0,56.0,30.15,SSE,159,0.0,0.0,81,0.00,,,0.00,,2013-06-10 05:32:00,
2013-06-10 01:42:00,62.0,56.0,30.15,SSE,159,0.0,0.0,81,0.00,,,0.00,,2013-06-10 05:42:00,
2013-06-10 01:52:00,62.0,56.0,30.15,SSE,159,0.0,0.0,82,0.00,,,0.00,,2013-06-10 05:52:00,
2013-06-10 02:02:00,62.0,56.0,30.15,SSE,159,0.0,0.0,82,0.00,,,0.00,,2013-06-10 06:02:00,
2013-06-10 02:12:00,62.0,56.0,30.15,SSE,159,0.0,0.0,82,0.00,,,0.00,,2013-06-10 06:12:00,
2013-06-10 02:22:00,62.0,57.0,30.14,SSE,159,0.0,0.0,83,0.00,,,0.00,,2013-06-10 06:22:00,
2013-06-10 02:32:00,62.0,57.0,30.14,SSE,159,0.0,0.0,85,0.00,,,0.00,,2013-06-10 06:32:00,
2013-06-10 02:42:00,62.0,57.0,30.14,SSE,159,0.0,0.0,85,0.00,,,0.00,,2013-06-10 06:42:00,
2013-06-10 02:52:00,62.0,57.0,30.14,SSE,157,0.0,1.0,85,0.00,,,0.00,,2013-06-10 06:52:00,
2013-06-10 03:02:00,61.0,57.0,30.14,SSE,157,0.0,0.0,86,0.00,,,0.00,,2013-06-10 07:02:00,
2013-06-10 03:12:00,61.0,57.0,30.14,SSE,157,0.0,0.0,86,0.00,,,0.00,,2013-06-10 07:12:00,
2013-06-10 03:22:00,61.0,57.0,30.14,SSE,157,0.0,0.0,86,0.00,,,0.00,,2013-06-10 07:22:00,
2013-06-10 03:32:00,61.0,57.0,30.14,SSE,157,0.0,0.0,86,0.00,,,0.00,,2013-06-10 07:32:00,
2013-06-10 03:42:00,61.0,57.0,30.14,SSE,157,0.0,0.0,86,0.00,,,0.00,,2013-06-10 07:42:00,
2013-06-10 03:52:00,61.0,57.0,30.14,SSE,157,0.0,0.0,86,0.00,,,0.00,,2013-06-10 07:52:00,
2013-06-10 04:02:00,61.0,57.0,30.14,SSE,157,0.0,0.0,87,0.00,,,0.00,,2013-06-10 08:02:00,
2013-06-10 04:12:00,61.0,57.0,30.14,SSE,157,0.0,0.0,87,0.00,,,0.00,,2013-06-10 08:12:00,
2013-06-10 04:22:00,61.0,57.0,30.14,SSE,157,0.0,0.0,87,0.00,,,0.00,,2013-06-10 08:22:00,
2013-06-10 04:32:00,61.0,57.0,30.14,East,99,0.0,1.0,88,0.00,,,0.00,,2013-06-10 08:32:00,
2013-06-10 04:42:00,61.0,57.0,30.14,East,99,0.0,1.0,88,0.00,,,0.00,,2013-06-10 08:42:00,
2013-06-10 04:52:00,61.0,57.0,30.13,East,99,0.0,2.0,88,0.00,,,0.00,,2013-06-10 08:52:00,
2013-06-10 05:02:00,61.0,58.0,30.12,East,99,0.0,0.0,89,0.00,,,0.00,,2013-06-10 09:02:00,
2013-06-10 05:12:00,61.0,58.0,30.12,East,99,0.0,0.0,89,0.00,,,0.00,,2013-06-10 09:12:00,
2013-06-10 05:22:00,61.0,58.0,30.13,East,99,0.0,1.0,89,0.00,,,0.00,,2013-06-10 09:22:00,
2013-06-10 05:32:00,61.0,58.0,30.12,ENE,71,0.0,3.0,89,0.00,,,0.00,,2013-06-10 09:32:00,
2013-06-10 05:42:00,61.0,58.0,30.12,ENE,71,0.0,3.0,89,0.00,,,0.00,,2013-06-10 09:42:00,
2013-06-10 05:53:00,61.0,58.0,30.12,East,83,0.0,2.0,89,0.00,,,0.00,,2013-06-10 09:53:00,
2013-06-10 06:03:00,61.0,58.0,30.12,East,90,0.0,1.0,89,0.00,,,0.00,,2013-06-10 10:03:00,
2013-06-10 06:12:00,61.0,58.0,30.12,East,90,0.0,1.0,89,0.00,,,0.00,,2013-06-10 10:12:00,
2013-06-10 06:22:00,61.0,58.0,30.13,East,90,0.0,0.0,89,0.00,,,0.00,,2013-06-10 10:22:00,
2013-06-10 06:33:00,61.0,58.0,30.13,East,90,0.0,0.0,90,0.00,,,0.00,,2013-06-10 10:33:00,
2013-06-10 06:42:00,61.0,58.0,30.13,East,90,0.0,0.0,90,0.00,,,0.00,,2013-06-10 10:42:00,
2013-06-10 06:52:00,61.0,58.0,30.13,East,90,0.0,1.0,90,0.00,,,0.00,,2013-06-10 10:52:00,
2013-06-10 07:03:00,61.0,58.0,30.13,East,91,0.0,1.0,90,0.00,,,0.00,,2013-06-10 11:03:00,
2013-06-10 07:12:00,61.0,58.0,30.13,East,91,0.0,1.0,90,0.00,,,0.00,,2013-06-10 11:12:00,
2013-06-10 07:22:00,61.0,58.0,30.12,East,90,0.0,3.0,90,0.00,,,0.00,,2013-06-10 11:22:00,
2013-06-10 07:32:00,62.0,59.0,30.12,ENE,66,0.0,2.0,91,0.00,,,0.00,,2013-06-10 11:32:00,
2013-06-10 07:42:00,62.0,59.0,30.12,ENE,66,0.0,2.0,91,0.00,,,0.00,,2013-06-10 11:42:00,
2013-06-10 07:52:00,62.0,59.0,30.12,ENE,66,0.0,1.0,91,0.00,,,0.00,,2013-06-10 11:52:00,
2013-06-10 08:02:00,62.0,59.0,30.12,East,81,0.0,2.0,91,0.00,,,0.00,,2013-06-10 12:02:00,
2013-06-10 08:12:00,62.0,59.0,30.12,East,81,0.0,2.0,91,0.00,,,0.00,,2013-06-10 12:12:00,
2013-06-10 08:22:00,62.0,59.0,30.12,East,80,0.0,2.0,91,0.00,,,0.00,,2013-06-10 12:22:00,
2013-06-10 08:32:00,62.0,59.0,30.11,East,80,0.0,0.0,91,0.00,,,0.00,,2013-06-10 12:32:00,
2013-06-10 08:42:00,62.0,59.0,30.11,East,80,0.0,0.0,91,0.00,,,0.00,,2013-06-10 12:42:00,
2013-06-10 08:52:00,63.0,60.0,30.12,East,80,0.0,0.0,91,0.00,,,0.00,,2013-06-10 12:52:00,
2013-06-10 09:02:00,64.0,61.0,30.12,East,80,0.0,1.0,91,0.00,,,0.00,,2013-06-10 13:02:00,
2013-06-10 09:12:00,64.0,61.0,30.12,East,80,0.0,1.0,91,0.00,,,0.00,,2013-06-10 13:12:00,
2013-06-10 09:22:00,64.0,61.0,30.13,East,80,0.0,1.0,91,0.00,,,0.00,,2013-06-10 13:22:00,
2013-06-10 09:32:00,65.0,62.0,30.12,East,80,0.0,1.0,91,0.00,,,0.00,,2013-06-10 13:32:00,
2013-06-10 09:42:00,65.0,62.0,30.12,East,80,0.0,1.0,91,0.00,,,0.00,,2013-06-10 13:42:00,
2013-06-10 09:52:00,65.0,62.0,30.12,East,80,0.0,1.0,91,0.00,,,0.00,,2013-06-10 13:52:00,
2013-06-10 10:02:00,67.0,64.0,30.12,ENE,77,0.0,2.0,89,0.00,,,0.00,,2013-06-10 14:02:00,
2013-06-10 10:12:00,67.0,64.0,30.12,ENE,77,0.0,2.0,89,0.00,,,0.00,,2013-06-10 14:12:00,
2013-06-10 10:22:00,67.0,63.0,30.11,ENE,64,2.0,4.0,88,0.00,,,0.00,,2013-06-10 14:22:00,
2013-06-10 10:32:00,67.0,63.0,30.11,East,86,0.0,5.0,87,0.00,,,0.00,,2013-06-10 14:32:00,
2013-06-10 10:42:00,67.0,63.0,30.11,East,86,0.0,5.0,87,0.00,,,0.00,,2013-06-10 14:42:00,
2013-06-10 10:52:00,68.0,64.0,30.10,ENE,78,1.0,3.0,86,0.00,,,0.00,,2013-06-10 14:52:00,
2013-06-10 11:02:00,68.0,63.0,30.10,East,98,0.0,7.0,85,0.00,,,0.00,,2013-06-10 15:02:00,
2013-06-10 11:12:00,68.0,63.0,30.10,East,98,0.0,7.0,85,0.00,,,0.00,,2013-06-10 15:12:00,
2013-06-10 11:22:00,69.0,64.0,30.10,NE,54,1.0,4.0,84,0.00,,,0.00,,2013-06-10 15:22:00,
2013-06-10 11:33:00,69.0,63.0,30.10,ENE,70,2.0,5.0,81,0.00,,,0.00,,2013-06-10 15:33:00,
2013-06-10 11:43:00,69.0,63.0,30.10,ENE,70,2.0,5.0,81,0.00,,,0.00,,2013-06-10 15:43:00,
2013-06-10 11:53:00,69.0,63.0,30.10,East,81,0.0,5.0,81,0.00,,,0.00,,2013-06-10 15:53:00,
2013-06-10 12:03:00,69.0,63.0,30.10,NNE,32,0.0,5.0,81,0.00,,,0.00,,2013-06-10 16:03:00,
2013-06-10 12:13:00,69.0,63.0,30.10,NNE,32,0.0,5.0,81,0.00,,,0.00,,2013-06-10 16:13:00,
2013-06-10 12:23:00,69.0,63.0,30.10,NE,50,0.0,2.0,80,0.00,,,0.00,,2013-06-10 16:23:00,
2013-06-10 12:33:00,69.0,63.0,30.09,ESE,112,0.0,2.0,81,0.00,,,0.00,,2013-06-10 16:33:00,
2013-06-10 12:43:00,69.0,63.0,30.09,East,88,0.0,4.0,82,0.00,,,0.00,,2013-06-10 16:43:00,
2013-06-10 12:52:00,69.0,63.0,30.09,East,88,0.0,4.0,82,0.00,,,0.00,,2013-06-10 16:52:00,
2013-06-10 13:03:00,69.0,64.0,30.08,North,349,0.0,7.0,84,0.00,,,0.00,,2013-06-10 17:03:00,
2013-06-10 13:14:00,68.0,63.0,30.08,SW,232,1.0,7.0,85,0.01,,,0.01,,2013-06-10 17:14:00,
2013-06-10 13:27:00,68.0,63.0,30.08,SW,232,1.0,7.0,85,0.01,,,0.01,,2013-06-10 17:27:00,
2013-06-10 13:38:00,67.0,63.0,30.08,West,280,1.0,8.0,86,0.01,,,0.02,,2013-06-10 17:38:00,
2013-06-10 13:48:00,67.0,63.0,30.07,East,85,1.0,6.0,87,0.03,,,0.04,,2013-06-10 17:48:00,
2013-06-10 13:57:00,67.0,63.0,30.07,East,85,1.0,6.0,87,0.03,,,0.04,,2013-06-10 17:57:00,
2013-06-10 14:07:00,66.0,62.0,30.06,East,81,4.0,10.0,88,0.04,,,0.05,,2013-06-10 18:07:00,
2013-06-10 14:14:00,66.0,62.0,30.06,East,81,4.0,10.0,88,0.04,,,0.05,,2013-06-10 18:14:00,
2013-06-10 14:25:00,66.0,62.0,30.05,ENE,66,4.0,9.0,88,0.04,,,0.05,,2013-06-10 18:25:00,
2013-06-10 14:35:00,66.0,63.0,30.05,NE,54,3.0,11.0,89,0.00,,,0.05,,2013-06-10 18:35:00,
2013-06-10 14:48:00,66.0,63.0,30.05,NE,54,3.0,11.0,89,0.00,,,0.05,,2013-06-10 18:48:00,
2013-06-10 14:55:00,65.0,62.0,30.05,NE,45,2.0,9.0,89,0.00,,,0.05,,2013-06-10 18:55:00,
2013-06-10 15:03:00,65.0,62.0,30.05,East,98,2.0,8.0,90,0.01,,,0.06,,2013-06-10 19:03:00,
2013-06-10 15:13:00,65.0,62.0,30.05,East,98,2.0,8.0,90,0.01,,,0.06,,2013-06-10 19:13:00,
2013-06-10 15:22:00,65.0,62.0,30.03,ENE,58,1.0,9.0,90,0.02,,,0.07,,2013-06-10 19:22:00,
2013-06-10 15:33:00,65.0,62.0,30.03,NE,40,3.0,10.0,90,0.09,,,0.16,,2013-06-10 19:33:00,
2013-06-10 15:43:00,65.0,62.0,30.02,ENE,71,2.0,10.0,91,0.14,,,0.21,,2013-06-10 19:43:00,
2013-06-10 15:52:00,65.0,62.0,30.02,ENE,71,2.0,10.0,91,0.14,,,0.21,,2013-06-10 19:52:00,
2013-06-10 16:03:00,64.0,61.0,30.01,East,98,5.0,14.0,91,0.16,,,0.23,,2013-06-10 20:03:00,
2013-06-10 16:12:00,64.0,61.0,30.01,East,98,5.0,14.0,91,0.16,,,0.23,,2013-06-10 20:12:00,
2013-06-10 16:23:00,64.0,61.0,30.00,ENE,72,3.0,10.0,91,0.18,,,0.25,,2013-06-10 20:23:00,
2013-06-10 16:32:00,64.0,62.0,29.99,NE,54,3.0,10.0,92,0.03,,,0.28,,2013-06-10 20:32:00,
2013-06-10 16:43:00,64.0,62.0,29.99,NE,54,3.0,10.0,92,0.03,,,0.28,,2013-06-10 20:43:00,
2013-06-10 16:52:00,63.0,61.0,29.98,NE,56,4.0,16.0,92,0.03,,,0.28,,2013-06-10 20:52:00,
2013-06-10 17:02:00,63.0,61.0,29.98,East,87,1.0,12.0,92,0.03,,,0.28,,2013-06-10 21:02:00,
2013-06-10 17:12:00,63.0,61.0,29.98,East,87,1.0,12.0,92,0.03,,,0.28,,2013-06-10 21:12:00,
2013-06-10 17:23:00,63.0,61.0,29.97,ENE,59,5.0,12.0,92,0.04,,,0.29,,2013-06-10 21:23:00,
2013-06-10 17:33:00,63.0,61.0,29.97,ENE,64,4.0,10.0,92,0.10,,,0.39,,2013-06-10 21:33:00,
2013-06-10 17:43:00,63.0,61.0,29.97,ENE,64,4.0,10.0,92,0.10,,,0.39,,2013-06-10 21:43:00,
2013-06-10 17:53:00,63.0,61.0,29.96,NE,51,5.0,16.0,92,0.16,,,0.45,,2013-06-10 21:53:00,
2013-06-10 18:03:00,63.0,61.0,29.95,ENE,77,2.0,9.0,92,0.17,,,0.46,,2013-06-10 22:03:00,
2013-06-10 18:13:00,63.0,61.0,29.95,ENE,77,2.0,9.0,92,0.17,,,0.46,,2013-06-10 22:13:00,
2013-06-10 18:22:00,62.0,60.0,29.95,East,94,4.0,12.0,93,0.17,,,0.46,,2013-06-10 22:22:00,
2013-06-10 18:33:00,62.0,60.0,29.94,ENE,65,2.0,9.0,93,0.01,,,0.47,,2013-06-10 22:33:00,
2013-06-10 18:42:00,62.0,60.0,29.93,NE,45,2.0,15.0,93,0.03,,,0.49,,2013-06-10 22:42:00,
2013-06-10 18:52:00,62.0,60.0,29.93,NE,45,2.0,15.0,93,0.03,,,0.49,,2013-06-10 22:52:00,
2013-06-10 19:03:00,62.0,60.0,29.94,NE,45,3.0,15.0,93,0.04,,,0.50,,2013-06-10 23:03:00,
2013-06-10 19:12:00,62.0,60.0,29.94,NE,45,3.0,15.0,93,0.04,,,0.50,,2013-06-10 23:12:00,
2013-06-10 19:22:00,62.0,60.0,29.94,ENE,75,3.0,9.0,93,0.06,,,0.52,,2013-06-10 23:22:00,
2013-06-10 19:32:00,61.0,59.0,29.94,NE,47,3.0,10.0,93,0.03,,,0.55,,2013-06-10 23:32:00,
2013-06-10 19:42:00,61.0,59.0,29.94,NE,47,3.0,10.0,93,0.03,,,0.55,,2013-06-10 23:42:00,
2013-06-10 19:52:00,61.0,59.0,29.93,ENE,74,1.0,11.0,93,0.04,,,0.56,,2013-06-10 23:52:00,
2013-06-10 20:02:00,61.0,59.0,29.93,ENE,70,4.0,14.0,93,0.06,,,0.58,,2013-06-11 00:02:00,
2013-06-10 20:12:00,61.0,59.0,29.93,NE,47,3.0,15.0,93,0.07,,,0.59,,2013-06-11 00:12:00,
2013-06-10 20:22:00,61.0,59.0,29.93,NE,47,3.0,15.0,93,0.07,,,0.59,,2013-06-11 00:22:00,
2013-06-10 20:32:00,61.0,59.0,29.92,ENE,74,1.0,8.0,94,0.00,,,0.59,,2013-06-11 00:32:00,
2013-06-10 20:42:00,61.0,59.0,29.91,NE,50,4.0,8.0,94,0.00,,,0.59,,2013-06-11 00:42:00,
2013-06-10 20:52:00,61.0,59.0,29.91,NE,50,4.0,8.0,94,0.00,,,0.59,,2013-06-11 00:52:00,
2013-06-10 21:02:00,61.0,59.0,29.91,ENE,66,1.0,10.0,94,0.00,,,0.59,,2013-06-11 01:02:00,
2013-06-10 21:12:00,61.0,59.0,29.91,ENE,66,1.0,10.0,94,0.00,,,0.59,,2013-06-11 01:12:00,
2013-06-10 21:22:00,61.0,59.0,29.91,NE,52,4.0,11.0,94,0.01,,,0.60,,2013-06-11 01:22:00,
2013-06-10 21:33:00,60.0,58.0,29.89,ENE,67,2.0,6.0,94,0.01,,,0.61,,2013-06-11 01:33:00,
2013-06-10 21:42:00,60.0,58.0,29.89,ENE,67,2.0,6.0,94,0.01,,,0.61,,2013-06-11 01:42:00,
2013-06-10 21:52:00,60.0,58.0,29.89,NE,47,2.0,7.0,94,0.02,,,0.62,,2013-06-11 01:52:00,
2013-06-10 22:03:00,60.0,58.0,29.89,ENE,76,2.0,8.0,94,0.06,,,0.66,,2013-06-11 02:03:00,
2013-06-10 22:12:00,60.0,58.0,29.89,ENE,76,2.0,8.0,94,0.06,,,0.66,,2013-06-11 02:12:00,
2013-06-10 22:22:00,60.0,58.0,29.88,ENE,68,2.0,7.0,94,0.00,,,0.79,,2013-06-11 02:22:00,
2013-06-10 22:32:00,60.0,58.0,29.89,NE,50,3.0,6.0,94,0.06,,,0.85,,2013-06-11 02:32:00,
2013-06-10 22:42:00,60.0,58.0,29.88,NE,46,2.0,5.0,94,0.07,,,0.86,,2013-06-11 02:42:00,
2013-06-10 22:52:00,60.0,58.0,29.88,NE,46,2.0,5.0,94,0.07,,,0.86,,2013-06-11 02:52:00,
2013-06-10 23:02:00,60.0,59.0,29.88,East,98,0.0,8.0,95,0.07,,,0.86,,2013-06-11 03:02:00,
2013-06-10 23:13:00,60.0,59.0,29.87,ENE,57,4.0,10.0,95,0.07,,,0.86,,2013-06-11 03:13:00,
2013-06-10 23:22:00,60.0,59.0,29.87,ENE,57,4.0,10.0,95,0.07,,,0.86,,2013-06-11 03:22:00,
2013-06-10 23:32:00,60.0,59.0,29.86,ENE,65,2.0,8.0,95,0.00,,,0.86,,2013-06-11 03:32:00,
2013-06-10 23:43:00,60.0,59.0,29.85,ENE,67,1.0,11.0,95,0.00,,,0.86,,2013-06-11 03:43:00,
2013-06-10 23:53:00,60.0,59.0,29.85,ENE,67,1.0,11.0,95,0.00,,,0.86,,2013-06-11 03:53:00,